Wetbulb
74.24 72.26 70.80 70.86 58.41 58.07 53.29 55.31 59.51 59.78 60.56 64.08 65.52 65.13 62.88 63.93 62.48 57.68 71.08 72.81 73.30 74.76 75.83 76.76 78.20 78.61 77.03 76.94 76.64 76.21 76.24 76.16 76.38 76.43 76.54 76.76 76.61 76.47 76.53 76.64 76.67 76.23 76.01 76.26 76.26 75.65 75.82 75.93 76.36
72.85 73.38 72.17 67.21 56.24 48.83 52.40 58.24 58.26 61.42 63.73 64.96 65.17 64.25 63.22 61.35 68.53 68.96 70.20 73.24 74.52 75.09 75.40 76.13 78.39 78.79 78.58 77.41 77.06 76.61 76.19 76.17 76.41 76.63 76.57 76.55 76.19 76.12 76.23 76.18 76.37 76.21 76.29 75.93 76.23 76.23 76.21 75.90 75.98
74.20 75.80 68.26 62.32 56.60 49.55 52.14 59.11 60.28 63.93 67.61 66.71 64.54 65.64 64.98 64.25 69.35 69.70 72.62 73.61 74.62 74.37 75.24 76.24 78.99 79.36 78.53 77.64 77.78 77.28 77.11 76.44 76.38 76.49 75.98 75.93 76.15 76.23 76.12 76.23 76.40 76.48 76.18 75.93 75.71 75.73 76.26 75.90 75.70
72.46 71.61 69.62 59.68 55.67 56.22 57.64 59.24 63.09 63.28 65.32 65.77 64.12 61.04 66.17 70.46 69.87 71.82 73.68 74.10 73.75 74.01 75.46 77.87 79.06 78.16 78.21 77.71 77.77 77.57 77.48 77.13 76.88 76.01 75.79 75.82 76.12 76.56 76.28 76.43 76.23 76.37 76.48 75.90 76.04 76.32 76.31 75.76 75.73
72.18 69.05 60.89 58.83 54.60 58.24 60.60 62.49 65.79 63.23 62.94 63.30 64.22 61.35 63.51 69.57 72.38 72.75 72.95 73.24 72.63 73.77 75.61 76.56 78.75 78.83 78.73 78.29 77.76 77.65 77.29 77.05 76.58 76.29 76.37 76.25 76.23 76.28 76.34 76.15 76.20 76.01 76.34 75.95 76.32 76.59 76.39 75.51 75.67
63.75 65.29 57.21 53.06 56.16 60.93 61.79 64.75 66.03 64.60 64.37 64.10 63.56 62.76 63.13 70.85 70.89 72.15 72.80 72.68 74.01 73.99 75.36 76.09 78.14 78.77 78.33 77.77 77.54 77.44 77.08 77.19 76.85 76.86 76.64 76.38 76.38 76.30 76.62 76.17 76.38 76.35 76.71 75.95 76.42 76.39 76.15 75.46 75.51
64.24 61.23 59.69 61.11 57.93 59.83 61.57 63.43 64.15 63.48 63.62 64.31 65.91 61.13 63.73 68.48 71.22 72.47 72.26 73.66 74.11 74.53 74.81 75.36 75.70 76.52 77.73 77.94 77.62 77.35 77.30 77.11 77.12 76.93 76.60 76.57 76.77 76.73 76.21 75.91 76.19 76.41 76.38 76.44 76.52 76.55 75.65 75.59 75.92
65.98 64.51 60.65 62.30 56.48 57.22 62.54 63.13 66.50 64.73 64.12 68.27 67.04 60.42 61.10 67.25 71.54 72.07 73.00 73.23 73.47 73.78 74.46 74.38 74.89 74.87 74.70 74.97 77.77 77.59 77.21 77.11 77.04 76.58 76.96 77.15 77.12 76.66 76.33 76.79 77.31 75.97 76.57 76.57 75.57 75.68 76.03 76.69 77.00
69.56 58.83 58.77 59.93 57.47 58.82 62.50 61.44 64.22 67.31 66.05 67.04 67.51 65.73 66.95 68.69 71.35 71.40 71.15 71.15 71.56 72.85 73.42 74.03 74.29 73.88 73.98 73.79 75.81 78.07 77.53 76.93 76.99 76.71 77.21 76.50 73.93 74.17 75.00 75.78 76.28 76.36 76.45 76.04 76.37 77.08 77.27 76.75 76.32
63.81 59.75 61.05 64.80 61.61 61.14 62.16 61.91 62.88 64.33 64.05 63.94 64.34 66.78 68.03 67.96 70.07 69.65 69.12 68.57 69.43 70.26 71.68 72.88 73.21 73.20 72.82 74.94 74.24 74.25 74.63 74.59 74.17 74.73 73.49 74.15 73.72 73.57 74.77 75.38 76.54 77.13 76.92 77.11 77.71 77.90 76.41 75.53 74.16
63.56 58.79 64.60 66.32 65.95 66.28 62.61 63.23 65.78 63.24 61.02 63.29 62.53 64.60 66.53 66.82 66.54 69.26 69.01 69.06 69.06 70.14 70.70 72.07 72.38 72.65 72.25 72.32 73.21 74.26 74.28 73.27 72.84 73.34 72.85 73.09 74.14 73.20 74.59 73.38 74.85 74.61 77.20 74.99 76.27 75.74 75.29 74.84 74.12
62.01 65.60 66.53 67.93 65.85 65.44 64.92 65.97 64.46 64.33 63.92 66.34 66.14 66.42 66.46 65.85 65.01 66.88 68.21 68.70 68.89 69.48 70.24 71.65 72.20 71.62 71.91 72.67 73.67 73.81 73.62 73.38 72.85 73.36 72.93 72.66 73.07 72.09 72.88 73.63 74.49 74.40 74.50 73.54 72.35 73.64 73.43 71.64 73.00
63.34 65.70 67.57 68.38 67.45 66.46 67.94 66.50 63.73 64.13 66.88 67.29 66.89 66.76 65.91 65.52 65.85 66.22 68.10 69.25 69.52 69.16 70.19 71.47 71.85 71.69 72.08 71.20 73.47 72.63 72.77 73.37 73.07 72.80 73.27 73.45 72.60 71.77 72.04 73.27 74.64 74.76 74.07 72.73 71.81 72.02 70.80 69.76 73.78
65.31 65.65 66.86 67.95 67.50 67.84 65.97 65.67 65.09 65.18 66.89 66.11 66.23 65.52 65.78 65.70 66.10 65.91 65.48 66.11 68.81 70.08 70.31 71.81 71.57 72.01 70.82 71.80 72.80 72.76 73.21 73.42 73.30 72.96 73.90 73.69 72.33 72.25 72.01 72.77 74.57 74.22 74.06 73.87 73.04 72.27 70.97 70.61 72.96
66.18 62.79 65.28 65.56 66.04 65.97 65.71 62.09 62.74 65.46 66.14 64.86 64.82 65.32 65.78 65.89 66.69 65.85 66.24 67.03 66.02 69.41 70.92 71.36 71.42 71.84 70.76 72.28 72.68 71.74 71.89 72.75 72.88 73.04 73.43 73.15 71.97 71.70 72.45 71.27 72.04 73.84 73.00 72.35 73.37 73.90 72.24 71.64 72.99
63.79 62.44 55.02 62.86 65.64 65.56 62.24 55.00 63.18 66.01 64.38 62.98 63.98 64.86 65.25 65.39 65.43 66.83 65.92 66.93 66.56 66.65 68.05 71.54 72.79 71.48 70.40 71.57 71.59 71.43 71.10 70.57 71.44 71.76 72.11 72.57 72.11 72.65 71.41 70.63 70.36 71.40 71.39 71.81 72.56 72.68 71.65 69.77 70.29
61.00 55.26 57.60 59.38 64.61 64.20 61.18 56.19 63.42 65.43 64.97 62.45 62.81 63.51 63.73 64.70 64.36 65.50 66.78 66.66 67.65 66.97 67.72 70.55 70.44 70.59 70.92 70.63 70.26 70.32 70.34 70.10 70.27 70.62 71.94 71.86 72.33 72.49 71.55 70.50 69.63 70.00 70.01 70.46 71.78 71.93 71.40 70.87 70.61
55.98 55.72 58.22 57.75 63.07 63.00 61.02 59.29 62.80 63.16 65.29 63.52 62.23 62.78 62.66 63.52 63.74 65.28 67.18 67.79 68.23 67.72 68.30 69.43 69.73 69.64 69.96 70.19 70.48 69.95 69.62 69.87 71.14 69.95 70.50 72.14 72.67 72.40 71.09 71.10 70.80 70.33 69.91 69.71 69.53 70.37 71.01 70.99 70.93
61.85 59.46 58.45 59.76 64.42 62.26 60.38 61.42 62.26 63.10 63.73 64.11 61.23 61.59 61.99 62.44 64.17 65.70 67.50 68.19 67.97 68.32 67.77 67.18 68.17 68.77 69.27 70.07 68.96 69.04 68.86 69.00 69.84 70.45 70.51 70.02 72.20 73.48 72.23 71.33 70.64 70.58 70.28 70.34 70.30 70.46 70.08 70.47 69.62
61.58 59.75 57.85 57.94 62.68 61.05 60.51 60.61 62.87 63.47 64.17 65.41 63.18 61.97 62.46 61.65 61.90 64.65 66.21 66.85 67.93 68.88 68.85 68.39 68.33 69.31 70.03 71.19 70.37 69.96 70.16 70.31 70.98 71.41 71.41 71.27 70.78 72.28 73.19 72.19 71.41 70.61 70.30 69.23 69.01 69.33 69.73 70.44 68.31
57.80 59.26 56.15 54.41 61.94 62.68 60.68 56.68 59.11 63.55 65.13 66.07 65.33 64.78 63.83 63.09 62.38 63.90 65.05 65.71 67.86 69.03 69.07 69.65 69.12 71.09 70.84 71.40 70.80 70.93 70.68 70.73 69.82 70.04 71.05 71.63 71.28 72.07 72.53 72.34 72.06 71.51 71.14 70.33 69.72 68.90 68.58 67.60 69.15
52.81 58.46 58.10 57.47 54.72 52.10 58.15 45.93 53.61 59.26 59.76 64.08 65.03 64.75 64.62 63.82 64.20 64.66 64.95 65.13 67.00 68.94 70.36 70.35 70.67 70.29 71.98 72.24 71.55 70.83 70.69 69.70 71.13 71.77 72.04 71.98 72.28 71.69 72.21 72.21 71.83 71.19 71.24 70.62 69.79 70.30 69.38 69.20 67.51
57.57 60.24 59.34 58.54 52.97 50.89 52.52 48.11 51.28 54.29 55.56 61.22 62.53 65.11 66.00 65.87 65.31 64.51 65.19 66.02 67.43 68.76 69.80 70.09 70.45 70.92 71.78 72.58 72.35 71.59 71.02 71.90 71.41 70.75 70.68 70.92 71.34 72.18 71.70 71.98 71.80 71.26 70.87 70.57 70.37 69.38 68.56 70.12 69.23
63.30 59.85 58.39 54.49 51.23 44.84 50.12 48.83 49.20 51.31 54.41 55.46 58.50 64.23 66.72 67.03 67.15 66.43 66.57 67.30 67.57 69.43 69.85 70.78 70.02 70.43 71.74 72.20 72.48 71.82 71.27 70.96 70.88 71.51 71.51 72.51 73.70 72.03 71.76 71.33 71.12 71.39 71.66 70.86 70.44 69.77 68.81 69.08 70.51
56.82 52.24 45.72 45.41 44.79 45.49 50.45 49.48 51.42 56.48 56.96 58.24 59.17 59.56 65.04 66.85 67.53 67.25 67.01 67.51 68.07 68.94 70.50 71.17 70.90 71.07 72.04 72.40 72.88 72.09 72.20 72.16 72.35 72.40 72.38 72.98 73.29 72.87 72.65 72.71 71.58 71.47 71.13 71.23 71.14 70.58 70.57 69.71 69.29
53.02 52.15 46.08 41.67 41.66 44.25 52.10 47.90 51.30 58.10 59.46 58.92 59.88 60.52 61.58 60.72 63.57 65.04 68.00 68.48 68.97 69.52 69.07 70.85 71.63 71.47 72.12 72.75 73.41 73.73 73.14 72.75 73.01 73.37 73.65 73.47 72.93 72.54 72.85 72.68 72.79 72.61 72.79 72.99 73.14 72.85 72.37 71.50 71.60
50.52 46.80 49.40 45.32 44.18 44.34 46.28 50.08 55.97 57.35 57.87 59.86 58.48 59.97 59.99 60.92 63.31 65.32 67.16 68.92 68.23 68.19 69.28 68.01 67.24 71.45 72.28 72.53 73.52 74.11 74.19 73.85 74.10 74.15 73.82 73.94 72.88 72.92 72.54 72.98 72.61 72.45 72.13 72.32 72.90 72.49 72.14 72.12 70.63
51.74 51.34 44.24 42.35 40.55 39.84 44.11 45.65 47.25 53.28 55.06 57.66 55.57 58.14 58.31 60.44 61.80 62.50 63.76 64.25 64.62 66.11 67.04 65.02 66.43 70.08 72.43 73.39 74.12 74.86 75.21 74.99 74.19 73.50 73.10 73.32 73.30 72.66 72.44 71.95 71.39 71.22 71.43 71.54 69.84 70.37 70.77 70.01 71.67
49.72 47.30 45.15 43.62 43.67 40.50 39.90 44.13 50.35 54.50 53.92 54.43 55.72 57.42 57.94 59.41 61.20 62.56 63.76 64.29 64.17 65.23 64.81 62.45 71.02 72.06 73.09 74.21 74.45 74.73 74.94 74.10 73.66 73.30 73.58 72.89 72.43 71.99 71.88 71.51 71.11 70.71 69.85 69.67 69.95 70.00 70.65 70.19 70.72
50.83 47.68 45.57 42.60 42.08 40.91 42.45 44.79 54.72 56.92 57.53 57.80 57.75 60.19 60.90 62.19 62.45 62.99 63.22 63.54 63.81 63.62 63.82 62.38 72.52 73.11 73.83 73.61 74.08 72.39 73.29 74.06 74.65 74.20 74.09 74.05 72.51 72.49 73.16 72.21 70.71 69.47 69.45 69.48 69.15 69.33 70.20 68.45 69.10
MSLP
1007.37 1007.94 1008.18 1008.96 1010.02 1009.81 1009.03 1007.79 1006.59 1006.44 1006.94 1006.76 1007.06 1007.06 1008.14 1008.50 1009.39 1011.26 1011.56 1012.16 1012.80 1013.53 1013.94 1014.33 1014.66 1015.03 1015.40 1015.71 1016.09 1016.40 1016.50 1016.68 1016.92 1017.18 1017.31 1017.56 1017.70 1017.89 1018.04 1018.10 1018.11 1018.16 1018.23 1018.28 1018.38 1018.30 1018.44 1018.58 1018.70
1006.78 1007.10 1007.59 1008.20 1009.20 1009.17 1008.29 1007.02 1006.14 1006.08 1006.39 1006.57 1006.80 1007.17 1007.69 1009.18 1009.84 1011.02 1011.93 1012.42 1012.77 1013.40 1014.01 1014.39 1014.67 1014.96 1015.37 1015.69 1016.07 1016.36 1016.42 1016.56 1016.95 1017.18 1017.37 1017.57 1017.73 1017.86 1017.99 1018.09 1018.15 1018.20 1018.19 1018.27 1018.35 1018.40 1018.39 1018.64 1018.75
1007.32 1007.58 1008.21 1008.75 1008.76 1008.06 1007.24 1006.24 1005.70 1005.72 1005.76 1005.68 1006.44 1007.02 1008.20 1009.90 1010.60 1011.17 1011.94 1012.45 1013.05 1013.59 1014.07 1014.34 1014.57 1014.87 1015.29 1015.76 1016.08 1016.38 1016.48 1016.62 1016.96 1017.20 1017.37 1017.50 1017.66 1017.79 1017.98 1018.03 1018.04 1018.13 1018.22 1018.24 1018.21 1018.40 1018.46 1018.60 1018.76
1007.76 1008.29 1008.89 1008.58 1007.60 1006.35 1005.62 1005.32 1005.58 1005.73 1005.81 1005.97 1006.71 1007.92 1009.09 1009.46 1010.16 1011.00 1012.04 1012.68 1013.24 1013.82 1014.09 1014.22 1014.51 1014.92 1015.32 1015.79 1016.06 1016.30 1016.50 1016.64 1016.92 1017.23 1017.42 1017.52 1017.58 1017.69 1017.84 1017.90 1018.04 1018.13 1018.12 1018.22 1018.20 1018.32 1018.53 1018.60 1018.78
1008.19 1008.20 1008.62 1007.98 1006.50 1005.32 1004.82 1004.76 1004.86 1005.48 1006.32 1006.60 1006.69 1008.59 1009.51 1010.22 1010.41 1011.48 1012.17 1012.72 1013.15 1013.83 1014.00 1014.24 1014.47 1014.88 1015.28 1015.63 1015.89 1016.14 1016.38 1016.60 1016.90 1017.15 1017.33 1017.47 1017.62 1017.70 1017.72 1017.79 1018.03 1018.16 1018.21 1018.29 1018.30 1018.33 1018.52 1018.66 1018.67
1008.66 1009.01 1008.70 1007.58 1005.66 1004.64 1004.34 1004.45 1004.76 1005.43 1006.18 1007.05 1007.69 1008.57 1009.89 1010.19 1010.80 1011.69 1012.10 1012.66 1013.06 1013.65 1013.99 1014.29 1014.59 1014.92 1015.26 1015.50 1015.73 1015.94 1016.14 1016.48 1016.77 1017.06 1017.21 1017.36 1017.52 1017.61 1017.68 1017.75 1017.91 1018.01 1018.09 1018.20 1018.32 1018.34 1018.29 1018.46 1018.47
1008.53 1008.87 1008.21 1006.63 1005.20 1004.20 1003.84 1004.12 1004.52 1005.38 1006.04 1006.76 1007.32 1008.82 1010.14 1010.71 1010.89 1011.38 1011.94 1012.34 1012.84 1013.12 1013.58 1014.04 1014.38 1014.69 1014.90 1015.10 1015.38 1015.60 1015.89 1016.25 1016.56 1016.79 1016.99 1017.18 1017.30 1017.39 1017.51 1017.63 1017.70 1017.79 1018.02 1018.00 1017.96 1018.05 1018.15 1018.27 1018.34
1007.94 1008.05 1007.32 1005.92 1004.68 1004.26 1003.48 1003.66 1004.22 1004.70 1005.88 1006.51 1006.95 1008.29 1009.47 1010.08 1010.72 1011.38 1012.27 1012.90 1013.29 1013.52 1013.76 1014.07 1014.35 1014.62 1014.92 1015.15 1015.29 1015.50 1015.78 1016.08 1016.36 1016.57 1016.80 1017.02 1017.10 1017.23 1017.37 1017.51 1017.56 1017.70 1017.77 1017.79 1017.66 1017.76 1017.92 1018.04 1018.13
1007.46 1007.71 1006.94 1005.23 1004.05 1003.75 1003.34 1003.46 1003.98 1004.70 1005.84 1006.26 1006.64 1007.24 1008.24 1009.43 1010.60 1011.76 1012.74 1013.41 1013.78 1014.07 1014.10 1014.04 1014.20 1014.42 1014.67 1014.88 1015.09 1015.40 1015.66 1015.94 1016.21 1016.40 1016.63 1016.89 1017.04 1017.13 1017.20 1017.36 1017.58 1017.64 1017.53 1017.55 1017.61 1017.58 1017.60 1017.78 1017.70
1008.16 1007.31 1006.14 1004.30 1003.24 1002.97 1003.14 1003.35 1004.05 1005.28 1006.18 1006.83 1007.26 1008.14 1008.74 1009.33 1010.84 1011.80 1012.65 1013.22 1013.76 1013.94 1014.14 1014.33 1014.27 1014.45 1014.75 1014.79 1015.01 1015.32 1015.57 1015.78 1016.07 1016.31 1016.55 1016.70 1016.88 1017.00 1017.13 1017.30 1017.50 1017.55 1017.46 1017.43 1017.45 1017.51 1017.56 1017.58 1017.70
1009.23 1008.29 1006.10 1004.23 1002.86 1002.57 1002.86 1003.42 1004.00 1005.31 1006.44 1006.41 1007.25 1008.10 1008.76 1009.28 1010.52 1011.41 1012.06 1012.33 1012.62 1013.02 1013.69 1013.94 1014.19 1014.29 1014.59 1014.74 1015.11 1015.32 1015.50 1015.72 1016.04 1016.33 1016.43 1016.49 1016.66 1016.82 1016.98 1017.16 1017.16 1017.32 1017.27 1017.38 1017.30 1017.44 1017.52 1017.33 1017.46
1009.67 1007.60 1006.22 1004.20 1002.74 1002.60 1002.84 1003.24 1004.30 1004.72 1005.80 1006.46 1007.01 1007.65 1008.49 1009.24 1009.81 1010.90 1011.52 1012.02 1012.56 1012.96 1012.96 1013.47 1013.78 1014.13 1014.31 1014.46 1014.73 1014.98 1015.20 1015.34 1015.62 1015.84 1016.06 1016.30 1016.44 1016.62 1016.64 1016.80 1016.77 1016.85 1016.98 1017.27 1017.41 1017.52 1017.56 1017.50 1017.30
1009.73 1007.28 1005.64 1003.98 1003.27 1003.25 1003.10 1003.71 1004.32 1005.27 1006.20 1007.02 1007.59 1008.03 1008.60 1009.14 1009.50 1009.74 1010.65 1011.14 1011.63 1012.30 1012.65 1012.94 1013.50 1013.71 1013.79 1014.15 1014.35 1014.59 1014.73 1014.90 1015.04 1015.33 1015.57 1015.91 1016.14 1016.19 1016.18 1016.22 1016.36 1016.44 1016.66 1016.79 1017.16 1017.37 1017.56 1017.36 1017.06
1009.12 1007.82 1006.60 1004.65 1003.80 1003.63 1003.55 1004.39 1004.80 1006.27 1006.72 1007.30 1007.84 1008.23 1008.57 1008.88 1009.18 1009.49 1009.84 1010.37 1011.02 1011.24 1011.71 1012.23 1012.85 1013.14 1013.19 1013.71 1014.00 1014.09 1014.14 1014.28 1014.52 1014.67 1014.76 1015.14 1015.52 1015.70 1015.78 1015.80 1015.81 1015.98 1016.06 1016.08 1016.41 1016.72 1016.93 1016.98 1016.66
1009.80 1009.26 1006.97 1005.25 1004.36 1004.25 1004.36 1005.33 1005.93 1006.31 1006.77 1007.26 1007.83 1008.11 1008.35 1008.49 1008.78 1009.11 1009.28 1009.57 1009.92 1010.46 1010.94 1011.65 1012.06 1012.56 1012.78 1013.10 1013.33 1013.60 1013.57 1013.71 1013.89 1013.95 1014.08 1014.42 1014.75 1015.16 1015.37 1015.43 1015.59 1015.52 1015.57 1015.67 1015.73 1015.94 1016.50 1016.70 1016.42
1010.16 1009.64 1008.01 1005.36 1004.73 1004.66 1004.82 1005.84 1006.44 1006.50 1006.84 1007.27 1007.62 1007.76 1008.01 1008.18 1008.34 1008.52 1008.82 1009.09 1009.53 1010.02 1010.73 1011.08 1011.55 1012.13 1012.34 1012.60 1012.70 1012.86 1013.07 1013.36 1013.25 1013.51 1013.66 1013.78 1014.03 1014.20 1014.70 1015.10 1015.11 1015.03 1015.30 1015.34 1015.58 1015.68 1016.00 1016.22 1016.40
1009.18 1008.33 1007.16 1005.96 1005.02 1004.88 1005.30 1005.96 1006.40 1006.44 1006.76 1007.04 1007.36 1007.37 1007.58 1007.82 1008.14 1008.09 1008.27 1008.69 1009.19 1009.57 1010.40 1010.94 1011.27 1011.71 1012.20 1012.49 1012.54 1012.50 1012.41 1012.60 1012.80 1013.01 1013.22 1013.42 1013.52 1013.64 1013.91 1014.16 1014.17 1014.32 1014.51 1014.91 1015.22 1015.48 1015.56 1015.80 1015.88
1008.36 1007.89 1006.59 1005.74 1005.30 1005.17 1005.46 1005.51 1005.92 1006.26 1006.51 1006.85 1007.13 1007.10 1007.28 1007.61 1007.83 1007.83 1008.02 1008.37 1008.83 1009.26 1009.94 1010.48 1011.07 1011.55 1011.80 1012.01 1012.33 1012.52 1012.53 1012.52 1012.42 1012.64 1012.78 1012.83 1013.06 1013.10 1013.30 1013.50 1013.62 1013.79 1014.30 1014.48 1014.89 1015.10 1015.19 1015.11 1014.98
1006.76 1006.79 1006.42 1005.40 1004.42 1004.97 1005.30 1005.35 1005.74 1006.01 1006.49 1006.64 1006.85 1006.85 1006.95 1007.24 1007.28 1007.58 1007.89 1008.20 1008.72 1009.25 1009.83 1010.39 1010.79 1010.95 1011.38 1011.96 1012.46 1012.62 1012.58 1012.52 1012.39 1012.22 1011.90 1012.13 1012.30 1012.54 1012.79 1012.98 1013.11 1013.23 1013.65 1013.89 1014.29 1014.63 1014.86 1015.00 1014.80
1006.28 1006.08 1005.12 1003.94 1003.51 1005.02 1005.42 1005.68 1005.39 1005.77 1005.76 1005.66 1006.09 1006.47 1006.59 1006.91 1007.24 1007.44 1007.50 1007.82 1008.28 1008.68 1009.19 1009.68 1009.93 1010.28 1010.56 1010.84 1011.22 1011.67 1011.98 1012.09 1012.04 1011.82 1011.52 1011.42 1011.54 1011.66 1011.92 1012.32 1012.46 1012.63 1013.00 1013.24 1013.54 1014.02 1014.45 1014.60 1014.77
1004.81 1004.57 1003.87 1003.67 1003.96 1004.74 1005.81 1006.74 1006.36 1005.40 1005.42 1005.46 1005.42 1005.61 1005.78 1006.05 1006.39 1006.66 1006.96 1007.04 1007.32 1007.77 1007.98 1008.18 1008.48 1008.97 1009.56 1009.99 1010.64 1011.12 1011.45 1011.64 1011.82 1011.78 1011.60 1011.33 1011.20 1011.22 1011.32 1011.52 1011.92 1012.04 1012.25 1012.43 1012.60 1012.97 1013.54 1013.94 1014.02
1003.27 1002.42 1002.61 1003.57 1004.60 1006.06 1006.31 1007.43 1006.25 1005.42 1005.05 1004.80 1004.86 1005.29 1005.15 1005.26 1005.45 1005.66 1005.68 1006.10 1006.41 1006.75 1007.18 1007.55 1007.66 1007.81 1008.21 1008.95 1009.52 1009.94 1010.34 1010.88 1010.86 1011.10 1011.16 1011.17 1010.88 1010.92 1010.80 1010.79 1011.21 1011.42 1011.60 1011.82 1011.91 1011.98 1012.25 1012.83 1013.22
1002.21 1002.30 1002.72 1003.43 1005.32 1006.35 1007.10 1006.91 1005.73 1005.24 1004.98 1004.38 1004.23 1004.33 1004.29 1004.19 1004.42 1004.65 1004.88 1004.91 1005.32 1005.73 1006.46 1007.00 1007.57 1007.84 1007.88 1008.14 1008.44 1008.70 1008.92 1009.19 1009.56 1010.16 1010.54 1010.40 1010.38 1010.35 1010.12 1010.03 1010.22 1010.56 1010.83 1010.93 1011.15 1011.46 1011.71 1011.86 1012.20
1001.91 1002.12 1003.03 1004.95 1006.12 1007.36 1006.59 1006.72 1005.85 1004.70 1003.88 1003.61 1003.24 1003.36 1003.27 1003.35 1003.62 1003.79 1003.88 1004.43 1004.77 1005.42 1006.03 1006.38 1006.96 1007.36 1007.55 1007.82 1007.98 1008.36 1008.56 1008.59 1008.80 1009.15 1009.74 1010.00 1009.78 1009.68 1009.72 1009.88 1009.90 1009.90 1010.00 1010.13 1010.32 1010.52 1010.82 1011.16 1011.40
1001.06 1002.88 1004.60 1006.35 1007.40 1007.30 1006.52 1006.39 1004.68 1003.53 1002.94 1002.35 1002.31 1002.49 1002.48 1002.41 1003.01 1003.55 1004.12 1004.21 1004.64 1005.18 1005.14 1005.52 1005.80 1005.56 1005.78 1006.39 1007.03 1007.16 1007.50 1007.96 1008.16 1008.38 1008.71 1009.28 1009.64 1009.55 1009.42 1009.39 1009.54 1009.58 1009.66 1009.66 1009.79 1010.10 1010.26 1010.40 1010.72
1000.94 1002.54 1004.40 1006.25 1007.47 1007.43 1006.68 1005.69 1003.44 1001.96 1001.72 1001.88 1001.83 1001.96 1002.15 1003.22 1003.33 1003.64 1003.63 1003.79 1004.11 1004.28 1004.32 1004.44 1004.78 1005.18 1005.44 1005.17 1005.02 1005.50 1006.32 1006.67 1007.08 1007.55 1008.06 1008.24 1008.73 1009.01 1009.07 1009.14 1009.00 1009.01 1009.19 1009.40 1009.58 1009.51 1009.44 1009.44 1009.56
1000.60 1001.90 1002.71 1004.89 1006.72 1007.32 1006.72 1004.72 1002.95 1002.07 1002.03 1002.18 1002.47 1002.36 1002.64 1002.59 1003.12 1003.36 1003.50 1003.15 1003.34 1003.66 1003.66 1003.69 1003.94 1004.02 1004.28 1004.27 1005.14 1005.82 1006.45 1007.38 1006.80 1006.61 1007.13 1007.29 1007.38 1007.84 1008.24 1008.58 1008.84 1008.81 1008.84 1008.99 1009.26 1009.28 1009.00 1008.89 1008.72
1000.31 1001.26 1002.76 1005.02 1006.93 1007.58 1006.71 1005.61 1004.39 1003.15 1002.77 1002.85 1004.00 1003.54 1003.64 1003.56 1003.54 1003.44 1003.50 1003.26 1003.37 1003.40 1002.92 1003.16 1003.62 1003.55 1003.86 1004.62 1005.64 1005.98 1006.51 1006.02 1005.90 1006.26 1006.89 1007.28 1007.14 1007.41 1007.67 1007.95 1008.32 1008.66 1008.77 1008.84 1009.00 1009.13 1008.97 1008.72 1008.27
1000.80 1001.44 1003.03 1005.08 1006.28 1007.44 1007.50 1006.66 1004.72 1003.74 1003.99 1004.50 1004.95 1004.92 1004.81 1004.74 1004.59 1004.31 1004.12 1003.94 1003.60 1003.31 1003.20 1003.50 1003.50 1003.45 1003.88 1004.93 1005.68 1005.94 1005.04 1005.44 1005.30 1005.89 1006.79 1006.95 1006.92 1006.90 1007.19 1007.36 1007.75 1008.00 1008.26 1008.23 1008.31 1008.40 1008.39 1008.26 1007.87
1000.56 1001.46 1002.88 1005.27 1006.36 1007.10 1007.19 1007.47 1005.88 1004.72 1004.77 1004.75 1005.27 1005.27 1005.38 1005.36 1005.53 1005.34 1005.00 1004.73 1004.50 1004.15 1004.19 1004.23 1004.17 1004.34 1005.31 1005.72 1005.41 1005.20 1002.93 1004.75 1006.21 1006.39 1006.44 1006.15 1006.13 1006.17 1006.38 1006.81 1007.48 1007.78 1007.67 1007.40 1007.35 1007.54 1007.44 1007.57 1007.43
Wind_Speed
6 5 3 2 4 5 4 3 5 10 10 3 5 7 10 12 1 3 12 13 18 14 13 14 17 17 18 17 16 16 16 16 15 14 14 13 13 13 12 12 12 11 9 9 9 7 7 8 11
5 1 1 3 6 3 3 2 9 11 15 16 12 9 10 7 8 15 9 17 17 14 11 11 17 17 17 17 16 16 15 16 14 13 13 12 12 11 11 11 11 10 9 8 9 8 7 7 8
6 5 4 4 2 4 6 3 6 13 14 6 6 10 5 5 14 11 14 19 16 13 9 12 17 17 18 18 16 15 14 15 13 12 11 11 11 11 10 10 10 9 8 7 6 7 7 6 6
3 4 1 2 4 5 7 7 17 12 7 10 12 9 7 4 15 11 19 19 16 12 10 15 18 18 17 17 16 16 14 14 13 12 11 9 10 11 11 10 10 10 10 9 8 6 7 6 6
3 1 4 3 3 3 4 8 16 12 7 12 7 6 8 13 17 23 20 18 16 13 11 13 17 17 16 16 16 15 14 14 12 12 11 10 10 11 11 10 10 10 10 10 9 9 8 7 6
4 2 3 3 3 5 5 14 15 15 16 15 13 9 3 18 23 19 19 18 16 15 12 11 16 16 16 17 16 16 15 14 13 12 11 10 10 10 9 9 10 11 10 10 10 9 9 9 8
6 3 3 5 8 6 9 10 13 17 16 8 9 9 9 19 20 20 19 19 18 17 16 12 12 16 20 18 18 17 16 15 14 13 12 11 11 10 9 10 10 11 11 11 11 11 10 10 10
4 2 4 4 4 5 12 5 15 17 11 17 19 9 14 18 22 18 16 14 13 13 12 12 11 10 10 10 16 16 16 15 15 13 13 12 11 10 10 10 10 11 12 12 12 11 11 10 9
3 3 3 3 5 6 8 8 4 12 15 5 6 11 20 18 20 16 14 11 10 10 10 11 11 9 9 8 11 14 17 15 15 13 13 10 4 6 8 8 10 12 13 13 12 12 11 10 10
5 4 4 5 4 6 7 9 11 9 13 12 15 17 15 15 20 19 16 14 12 13 12 9 9 10 7 8 8 6 6 5 5 5 6 4 5 5 6 8 12 12 13 12 12 11 12 10 3
3 5 8 7 5 3 9 6 7 15 5 19 23 21 17 12 17 19 17 18 19 16 11 13 11 10 10 7 4 3 3 3 3 6 6 5 5 4 4 3 4 5 10 4 7 6 4 5 4
4 11 13 9 4 7 7 4 11 13 8 18 23 21 16 14 9 18 17 16 12 14 15 14 13 11 10 6 6 6 5 5 5 6 7 5 4 4 6 5 6 4 5 4 4 3 4 4 6
2 9 13 9 7 5 13 8 7 11 18 18 18 18 17 14 13 9 20 17 16 15 14 15 13 12 11 7 7 6 7 6 7 6 8 6 5 6 5 6 6 6 5 6 5 5 4 5 6
6 21 21 5 8 4 9 12 8 13 18 18 18 16 16 15 15 10 8 11 20 18 17 16 15 13 11 11 10 8 7 7 8 7 8 10 7 5 5 5 7 7 7 6 6 8 8 7 6
14 13 16 4 0 3 3 8 8 13 18 18 16 15 15 14 15 13 13 14 11 17 17 18 17 14 12 13 11 8 8 7 8 9 10 10 9 7 6 5 5 7 6 6 7 7 4 4 5
8 7 6 3 2 0 5 4 5 8 16 14 14 14 13 12 14 14 10 11 9 9 15 17 14 13 9 11 10 8 6 5 6 5 6 9 8 8 7 5 5 5 5 5 5 6 6 5 5
5 3 3 6 5 4 4 3 5 7 9 13 12 12 10 12 8 8 10 10 13 10 10 15 11 12 13 8 5 6 6 5 4 4 6 8 9 9 7 5 5 6 4 4 4 5 3 4 5
4 3 3 5 3 0 2 6 4 9 8 12 10 11 9 11 10 8 10 10 13 11 12 15 11 11 9 6 4 3 3 4 4 5 5 9 9 10 8 6 6 5 4 4 3 5 4 5 5
8 5 10 10 8 7 7 5 3 6 6 8 9 10 10 10 10 10 9 11 10 8 9 9 9 8 6 3 3 2 4 3 4 5 7 8 10 11 9 7 7 6 6 6 5 4 5 4 3
12 12 13 8 8 6 7 7 5 5 8 13 13 12 12 8 7 9 11 11 13 13 14 12 12 12 10 7 5 4 4 4 5 6 7 9 9 11 12 12 10 9 7 7 6 6 3 3 5
10 17 9 6 7 0 8 7 6 6 7 10 14 14 12 15 15 15 14 15 15 16 17 17 17 16 14 13 4 2 1 2 2 5 6 9 7 9 11 13 11 10 9 9 10 7 8 7 5
4 10 6 9 8 5 1 4 5 7 8 14 16 14 14 16 15 16 18 15 17 18 17 18 18 18 16 16 13 13 10 10 8 8 7 9 10 10 11 13 12 12 9 10 9 9 9 6 8
10 1 7 5 7 5 2 5 9 4 7 13 15 17 17 18 18 19 20 19 19 18 17 16 15 15 15 15 16 13 14 10 6 4 7 7 6 9 11 13 14 12 9 11 11 8 7 7 7
9 6 5 6 4 2 7 6 7 6 9 6 6 17 20 19 18 19 21 18 17 15 15 16 15 16 15 14 16 15 16 12 7 7 6 5 4 5 8 8 9 10 10 10 9 11 8 8 8
6 6 4 5 4 6 5 3 11 5 8 11 13 10 17 18 17 15 15 16 12 13 14 15 17 20 19 17 16 18 17 13 13 10 7 6 4 3 6 6 7 7 8 8 7 6 8 9 9
2 9 7 6 4 1 6 4 7 5 7 5 5 6 3 10 10 11 15 12 14 14 13 15 17 20 17 18 21 18 17 10 9 8 6 5 5 5 6 6 6 7 6 6 7 9 10 10 9
4 0 6 7 5 4 3 5 7 4 2 4 8 12 10 8 8 10 13 17 13 13 16 15 11 16 18 20 14 14 12 9 9 8 6 6 6 5 7 7 6 5 5 6 7 7 9 8 9
4 3 5 5 3 1 3 4 5 2 3 4 4 8 5 5 6 5 6 8 6 9 13 6 7 9 14 11 10 8 13 14 8 5 7 6 6 5 5 5 6 5 4 4 4 5 6 7 8
5 5 7 6 5 7 2 5 5 6 7 9 3 6 6 2 3 5 6 7 7 7 8 7 5 7 5 8 7 3 17 7 6 6 5 6 5 6 7 6 4 5 5 5 5 6 8 9 10
5 5 6 7 6 2 6 4 9 10 8 7 7 8 7 10 6 4 5 8 9 9 9 8 2 2 6 7 11 19 22 9 3 4 7 7 8 7 7 5 5 4 7 7 6 7 8 8 10
Wind_Direction
263 160 191 124 75 61 294 17 153 105 89 91 139 111 102 29 63 172 133 134 138 143 150 148 150 150 146 144 142 145 139 130 130 130 127 129 121 122 122 126 134 138 136 137 136 144 145 144 149
309 160 88 88 77 64 344 264 87 100 122 119 106 92 51 78 73 114 112 138 138 139 144 149 156 155 150 150 151 154 147 139 144 141 142 146 143 140 142 139 141 149 145 148 149 153 156 153 153
346 18 48 96 156 165 140 175 139 127 148 126 104 78 79 87 111 125 131 136 136 135 142 154 157 157 156 159 157 160 156 149 157 155 159 163 162 156 157 157 158 151 148 160 165 164 162 163 161
110 10 333 99 226 234 148 162 106 97 94 93 124 72 66 162 140 131 137 136 134 138 146 149 153 155 161 161 160 163 162 157 164 164 164 160 164 164 169 170 173 166 167 173 182 178 168 174 164
339 29 14 313 261 123 146 118 114 100 82 100 99 99 110 155 115 137 140 141 141 143 149 151 154 157 161 165 164 164 162 162 170 172 169 164 166 177 186 188 182 185 183 183 184 177 168 174 185
36 54 26 311 81 90 115 133 108 105 119 106 94 100 100 134 138 150 148 148 146 149 151 154 153 157 163 167 166 169 164 170 174 175 177 179 185 191 196 204 195 193 188 186 182 185 178 181 190
117 122 201 265 106 76 131 138 121 133 138 135 124 113 130 144 153 155 155 153 157 157 156 159 161 167 168 170 172 170 171 175 181 185 188 194 197 199 199 200 196 195 187 184 189 191 189 191 192
108 50 332 283 135 85 108 96 141 148 151 120 140 151 166 158 155 154 146 148 150 154 159 162 165 169 171 173 175 176 179 184 188 193 198 199 201 200 201 202 197 191 193 192 197 198 200 206 212
227 62 272 257 138 156 131 131 88 108 131 184 203 147 152 146 139 136 136 137 146 162 166 172 175 172 171 172 184 187 189 192 195 202 207 206 195 209 206 203 208 202 202 200 200 209 217 217 225
22 348 284 283 185 149 148 139 138 110 116 96 100 128 146 148 136 145 153 157 170 173 180 181 179 176 171 184 190 182 198 190 187 194 206 191 198 207 209 216 214 220 216 214 213 217 222 230 216
309 218 290 284 92 185 152 150 122 117 111 146 141 149 153 159 142 160 165 170 183 182 177 183 184 183 180 194 178 184 192 186 195 204 206 203 197 213 210 203 217 217 231 227 222 230 226 223 207
307 244 259 282 56 96 128 130 144 138 171 148 148 151 150 159 175 158 171 185 171 181 185 182 188 182 186 193 182 188 192 193 198 209 207 198 204 201 210 204 212 196 217 203 225 223 223 264 243
317 306 311 254 99 91 78 73 104 121 135 140 146 150 160 165 182 187 176 187 178 180 186 185 188 185 191 189 185 187 199 201 206 204 210 201 202 212 196 208 203 201 203 213 197 215 213 221 239
21 303 295 296 89 93 108 102 97 128 140 146 152 160 171 175 183 194 177 183 180 181 187 183 190 192 186 192 189 198 199 201 204 207 209 200 200 206 194 211 206 206 205 210 200 200 206 210 225
289 293 310 272 245 114 94 85 107 141 150 153 163 172 181 189 185 197 189 191 173 182 176 184 187 191 183 189 193 197 203 202 207 208 208 201 196 191 205 208 187 210 210 201 208 205 180 205 219
263 217 240 299 137 97 85 234 157 160 154 164 173 179 184 202 184 198 180 186 179 156 169 183 188 189 183 188 194 189 186 186 183 195 200 208 205 192 201 190 194 198 187 196 205 208 193 190 204
236 210 232 315 232 128 102 230 173 163 169 172 181 185 180 196 199 187 177 169 176 173 150 174 174 173 179 185 180 192 199 192 178 188 202 215 214 209 205 210 212 210 228 186 197 217 200 186 211
226 284 223 189 188 69 89 264 152 185 169 183 188 189 181 182 194 190 175 165 170 170 166 174 176 182 181 173 173 204 213 228 215 201 194 207 218 218 201 210 216 201 212 240 193 225 206 215 216
252 259 268 275 196 148 199 230 233 183 175 182 194 192 188 186 191 183 176 171 169 159 164 171 169 192 166 156 169 203 220 234 244 226 220 197 208 217 215 213 208 201 199 215 213 197 207 226 177
244 258 270 273 219 132 188 238 212 180 206 196 188 197 193 186 174 189 182 173 172 176 182 184 185 186 191 186 184 171 176 221 227 231 235 227 204 208 211 211 212 206 212 216 218 195 199 222 187
254 226 242 126 126 206 102 328 283 260 219 223 195 203 191 192 187 189 191 191 184 185 188 189 190 186 194 193 166 176 169 289 212 244 244 245 227 216 211 213 215 211 209 218 214 199 193 230 220
327 201 202 146 108 157 185 249 272 246 228 197 195 200 201 198 198 195 194 193 189 197 194 196 199 194 194 187 191 198 203 214 219 225 231 236 235 231 220 217 217 215 214 219 216 215 214 190 227
229 358 58 360 84 103 233 86 260 189 211 196 203 200 208 204 198 197 201 198 198 191 195 200 205 209 205 194 203 200 203 208 201 199 231 229 231 230 222 216 216 218 217 223 221 215 213 205 219
254 132 43 64 93 36 220 132 271 201 198 229 221 204 208 208 204 205 205 200 200 198 200 200 200 213 212 206 209 210 216 212 196 207 217 238 237 226 216 219 225 226 227 226 223 226 211 207 215
189 74 8 0 10 223 171 89 240 252 227 207 221 210 211 214 202 203 206 206 199 205 199 205 212 212 204 202 208 212 215 210 211 207 209 211 230 241 239 221 219 226 231 230 227 225 223 220 219
234 139 154 194 208 246 143 249 260 222 201 199 235 240 269 120 146 181 206 202 202 202 201 197 208 224 216 207 207 206 212 207 209 205 199 208 214 230 244 239 230 226 226 230 228 235 240 242 233
288 81 193 111 22 80 233 295 322 60 157 85 99 102 112 111 141 150 182 204 194 197 213 209 202 217 214 215 207 205 206 214 209 200 202 210 205 213 228 233 245 235 230 231 241 248 250 239 243
160 209 14 11 117 191 276 328 243 120 222 39 75 77 60 89 151 196 220 230 203 217 227 206 205 215 229 213 194 166 221 219 188 187 210 222 220 222 237 228 232 254 257 261 262 270 270 260 253
2 9 46 108 123 153 123 298 250 218 67 79 88 90 99 137 238 263 286 293 277 261 272 275 250 217 178 125 127 125 232 194 170 186 217 223 228 224 230 237 251 250 265 257 253 253 262 255 258
183 166 121 111 298 59 112 303 340 83 79 113 61 55 59 74 94 129 230 257 274 275 283 261 327 75 34 33 42 28 350 5 306 268 246 211 225 229 228 217 233 256 247 242 231 251 263 254 262